Regional Weather Roundup
Issued by NWS

Home | Current Version | Previous Version | Graphics & Text | Print | Product List | Glossary On
Versions: 1 2 3 4 5 6 7 8 9 10 11 12 13 14 15 16 17 18 19 20 21 22 23 24 25 26 27 28 29 30 31 32 33 34 35 36 37 38 39 40 41 42 43 44 45 46 47 48 49 50
000
ASUS43 KLMK 060402
RWRKY
KENTUCKY REGIONAL WEATHER ROUNDUP
NATIONAL WEATHER SERVICE LOUISVILLE KY
1200 AM EDT FRI MAY 06 2016

NOTE "FAIR" INDICATES FEW OR NO CLOUDS BELOW 12,000 FEET
WITH NO SIGNIFICANT WEATHER AND/OR OBSTRUCTIONS TO VISIBILITY.

KYZ001>023-026-027-061>063-070>075-060500-
WESTERN AND SOUTH CENTRAL KENTUCKY

CITY           SKY/WX    TMP DP  RH WIND       PRES   REMARKS
PADUCAH        CLEAR     49  44  83 W5        30.00S
HENDERSON      CLEAR     50  45  81 CALM      29.98S
OWENSBORO      PTCLDY    50  47  89 CALM      29.98S
HOPKINSVILLE   CLEAR     51  44  77 NW10      29.99S
BOWLING GREEN  PTCLDY    50  45  83 W3        29.97S
GLASGOW        NOT AVBL
$$

KYZ024-025-028>034-038-045-046-053-060500-
NORTH CENTRAL KENTUCKY

CITY           SKY/WX    TMP DP  RH WIND       PRES   REMARKS
LOUISVILLE/SDF MOCLDY    56  44  64 NW8       29.93S
LOUISVILLE/LOU CLOUDY    54  45  71 NW6       29.94R
FORT KNOX      CLOUDY    50  45  84 W5        29.93S
$$

KYZ035>037-039>044-047>052-055>060-089>105-060500-
NORTHEAST KENTUCKY

CITY           SKY/WX    TMP DP  RH WIND       PRES   REMARKS
LEXINGTON      MOCLDY    48  45  89 W5        29.90F
COVINGTON      NOT AVBL
FRANKFORT      CLOUDY    52  45  77 W6        29.90S
$$

KYZ054-064>069-076>088-106>120-060500-
SOUTHEAST KENTUCKY

CITY           SKY/WX    TMP DP  RH WIND       PRES   REMARKS
JACKSON        CLEAR     47  43  86 VRB5      29.87S
LONDON         PTCLDY    47  43  86 NW7       29.90S
SOMERSET       NOT AVBL
MIDDLESBORO    NOT AVBL
MONTICELLO     PTCLDY    47  44  90 W6        29.95F
$$





USA.gov is the U.S. government's official web portal to all federal, state and local government web resources and services.